Погода в Мцхете

Грузия     41°50′42″N   44°42′55″E
темп.,
°C
ветер,
м/с
пор.,
м/с
влажн.,
%
обл.,
%
осадки,
мм/ч
давл.,
гПа
погр.,
м
2 июля, сб
сб201:00+18сз488863 0.4 1011403
04:00+18ссз488715 0.8 1011411
07:00+18ссз378132 0.0 1010421
10:00+20ссз377172 0.1 1010674
13:00+25сз685031 1.0 10081430
16:00+23сз7125594 1.3 10081227
19:00+20сз716660 0.0 10091138
22:00+16сз616760 0.0 1011986
3 июля, вс
вс301:00+17сз916628 0.0 10121201
04:00+16сз815630 0.0 10121058
07:00+16сз714660 0.0 10131155
10:00+20сз811501 0.0 10131352
13:00+23сз77400 0.0 10121584
16:00+24ссз67380 0.0 10111617
19:00+21ссз58452 0.0 1012898
22:00+17ссз611610 0.0 1015830
4 июля, пн
пн401:00+15ссз411701 0.0 1016679
04:00+14сз377741 0.0 1016412
07:00+15ссз237182 0.0 1017325
10:00+20сз11505 0.0 1016924
13:00+23юв32423 0.0 10151658
16:00+23юв434615 0.1 10141810
19:00+22юв235070 0.0 10141532
22:00+19ююз11640 0.0 101621
5 июля, вт
вт501:00+17сз12684 0.0 101637
04:00+16сз227176 0.0 101689
07:00+17св116683 0.0 1017110
10:00+21юв23490 0.0 10161029
13:00+24ююв33410 0.0 10151752
16:00+26ююв33380 0.0 10131628
19:00+24ю23430 0.0 1013980
22:00+21зсз11522 0.0 101413
6 июля, ср
ср601:00+19сз22554 0.0 101540
04:00+18юв11543 0.0 101619
07:00+18ююз12533 0.0 101773
10:00+21юв36460 0.0 10171291
13:00+25юв46380 0.0 10161801
16:00+26ююв45330 0.0 10142101
19:00+25ююв25360 0.0 10141636
22:00+21с11450 0.0 101614